OBJECT R, 47947

Orbit data source: Space-Track

You're viewing an Uncataloged Satellite

Recently launched and/or uncataloged satellites may have evolving metadata. Metadata may include but not limited to: Owner, Maufacturer, Bus, Motor, and Mission.

OBJECT R, 47947 is a satellite in SSO that was launched on Mon, 22 Mar 2021 UTC via a SOYUZ-2-1A launch vehicle from the Tyuratam Missile And Space Complex (TTMTR). Unknown objects in Earth's orbit typically refer to objects detected orbiting the Earth but have not yet been identified or cataloged. These objects could be anything from previously untracked satellites, spent rocket stages, debris from satellite collisions, or even natural meteoroids temporarily captured by Earth's gravity.

Loading next visibility...
Identifier
47947, 2021-022R
Orbit
SSO
Country
Flag of TBDTBD
Related business
None
Manufacturer
Unknown
Mission
Civil Imaging
Bus & Motor
Unknown
Mass
Unknown
Launch date (UTC)
2021-03-22 (5 years ago)
Launch vehicle
SOYUZ-2-1A
Launch site
Tyuratam Missile And Space Complex (TTMTR)
Object type
Unknown
Shape & HBR
Box, 0.3 m
Radar Cross Section
0.195 m², Medium (>0.1 m² and < 1m²)

Expand to show TLE details & history
Last TLE update: 16 hours ago

TLE from 16 hours ago
0 OBJECT R
1 47947U 21022R   25348.93610341  .00001381  00000-0  91346-4 0  9997
2 47947  97.3829 226.7779 0019239  86.1749 274.1679 15.08810004260225
Epoch: 2025-12-14T22:27Z
TLE epoch observation values (Epoch: 2025-12-14T22:27:59.334Z)
Latitude
-0.00007°
Longitude
165.93881°
Altitude
541.969 km
Speed
7.592 km/s
True Right ascension
15h 07m 06s
True Declination
0° 00' 00"
Sunlit
Object was in daylight at epoch
Visualization orbit readout
Latitude
Unknown
Longitude
Unknown
Altitude
Unknown
Speed
Unknown
Apparent Right ascension
Unknown
Apparent Declination
Unknown
Sunlit
N/A
Visualization observer readout
Local Sidereal Time
13:20:33
Azimuth
Unknown
Elevation
Unknown
Doppler factor
Unknown
Orbital elements
Apogee altitude
550.119 km
Perigee altitude
523.511 km
Semi-major axis
6,914.952 km
Eccentricity
0.00192
Inclination
97.3829°
RAAN
226.7779°
Arg. of periapsis
86.1749°
True anomaly
273.94798°
Mean anomaly
274.1679°
Eccentric anomaly
274.05795°
Mean motion
3.7745 °/min
Orbital period
95.38 mins
BSTAR
0.000091346
Loading maneuver chart data...
Computing Atmospheric mass density...
Loading historical data...
Loading historical data...
Loading historical data...
Loading historical data...
Loading historical data...
Loading historical data...
Loading historical data...

Documentation

Showing up to 5 results
|